[[{"header":{"parameterUnit":"m.s-1","parameterCategory":2,"la1":30.2991,"la2":30.254,"lo1":-89.0895,"lo2":-89.0444,"dy":0.0017,"dx":0.0017,"nx":28,"ny":28,"refTime":"2025-08-16T21:00:00:Z","depth":"0","parameterNumber":2,"parameterNumberName":"U-component_of_CURRENTS"},"data":[0,0,0,0,0,0,0,0,0,0,0,0,0,0,0,0,0,0,0,0,0,0,0,0,0,0,0,0,0,0,0,0,0,0,0,0,0,0,0,0,0,0,0,0,0,0,0,0,0,0,0,0,0,0,0,0,0,0,0.1957,0.1958,0,0.1963,0.1963,0.1962,0.1943,0.1942,0.1942,0.1942,0.1861,0.186,0.1858,0,0,0,0,0,0,0,0,0,0,0,0,0,0.1884,0.1885,0.1957,0.1958,0.1958,0.1963,0.1963,0.1962,0.1943,0.1942,0.1942,0.1942,0.1862,0.186,0.1858,0,0,0,0,0,0,0,0,0,0,0,0,0,0.1902,0.1886,0.1957,0.1951,0.1951,0.1963,0.1963,0.1962,0.1943,0.1942,0.1942,0.1941,0.1863,0.186,0.1857,0.185,0,0,0.1849,0.1848,0,0,0,0,0,0,0,0,0.1901,0.1905,0.1952,0.1951,0.1951,0.1954,0.1907,0.1921,0.1943,0.1942,0.1942,0.1941,0.1887,0.1882,0.1881,0.1846,0.1842,0.1849,0.1847,0.1846,0.1845,0,0,0,0,0,0,0,0.19,0.1904,0.1956,0.1952,0.1952,0.1932,0.1935,0.191,0.1913,0.1942,0.1942,0.1947,0.1886,0.1884,0.1879,0.1841,0.1849,0.1846,0.1845,0.1843,0.1809,0.181,0,0,0,0,0,0,0.1909,0.1903,0.1956,0.1957,0.1928,0.1934,0.1937,0.1951,0.1915,0.1911,0.1948,0.1947,0.1889,0.1882,0.1876,0.1877,0.1846,0.1843,0.1842,0.1808,0.1809,0.181,0,0,0,0,0,0,0.1907,0.1914,0.1956,0.1932,0.1936,0.1937,0.1953,0.1952,0.1954,0.1921,0.1914,0.1953,0.1888,0.188,0.1866,0.1873,0.1842,0.1839,0.1808,0.1809,0.181,0.1871,0,0,0,0,0,0,0.1905,0.1914,0.1922,0.1933,0.1938,0.1967,0.1954,0.1952,0.196,0.1958,0.1923,0.1915,0.1887,0.1871,0.1864,0.1869,0.1837,0.1807,0.1808,0.1809,0.1868,0.1874,0.1879,0,0,0,0,0,0.1903,0.1915,0.1923,0.1929,0.1952,0.1968,0.1969,0.1965,0.1961,0.1964,0.1947,0.1916,0.1874,0.1869,0.1861,0.1865,0.1806,0.1808,0.1809,0.1865,0.1872,0.1879,0,0,0,0,0,0,0.1883,0.1916,0.1923,0.1945,0.1959,0.1966,0.1967,0.1972,0.1963,0.1956,0.1926,0.1917,0.1908,0.1881,0.1877,0.186,0.1835,0.1835,0.188,0.1887,0.1892,0.1896,0.1835,0,0,0,0,0,0.1887,0.1904,0.1932,0.1945,0.1956,0.1965,0.197,0.1972,0.1969,0.1965,0.1949,0.1926,0.1908,0.1894,0.1873,0.1863,0.1879,0.1861,0.1867,0.1872,0.187,0.189,0.1898,0.1816,0.1816,0.1816,0,0,0.1881,0.1901,0.1909,0.1942,0.1949,0.1974,0.1965,0.1977,0.1991,0.1956,0.1962,0.1944,0.1911,0.1904,0.1897,0.1881,0.1916,0.1874,0.1878,0.1873,0.1893,0.1901,0.1908,0.1817,0.1817,0.1816,0,0,0.1883,0.1899,0.1919,0.194,0.1965,0.1973,0.1982,0.2001,0.2,0.2007,0.1989,0.1979,0.1953,0.1935,0.192,0.1943,0.1947,0.1938,0.1964,0.1985,0.1992,0.1999,0.2088,0.2102,0.1938,0.1938,0.1938,0,0.1876,0.1914,0.1924,0.1956,0.1976,0.1979,0.201,0.2011,0.2022,0.2026,0.2013,0.1999,0.1965,0.1964,0.1968,0.1954,0.1994,0.1942,0.1994,0.2,0.2005,0.2094,0.2109,0.1941,0.1941,0.1941,0.194,0,0.1906,0.1935,0.1947,0.1991,0.2009,0.2033,0.205,0.2061,0.2061,0.2064,0.2068,0.2039,0.2035,0.202,0.1994,0.2016,0.2047,0.2003,0.1979,0.2017,0.211,0.2124,0.1946,0.1945,0.1944,0.1943,0,0,0.1908,0.1959,0.1968,0.1993,0.2035,0.2052,0.2076,0.2102,0.2123,0.2115,0.2148,0.2104,0.2101,0.2084,0.2063,0.2064,0.2145,0.2052,0.2052,0.2148,0.2258,0.2442,0.2475,0.2115,0.2116,0.2117,0.2331,0,0.1935,0.1991,0.2014,0.2063,0.2094,0.2112,0.2138,0.2154,0.2163,0.2192,0.2161,0.2176,0.2123,0.2135,0.2129,0.2139,0.2174,0.2095,0.2201,0.2205,0.2367,0.2493,0.2459,0.266,0.2344,0.2346,0.2348,0,0.1974,0.2005,0.2059,0.2106,0.2123,0.2148,0.2197,0.2221,0.2249,0.2263,0.2274,0.2266,0.2284,0.2224,0.2278,0.2239,0.2257,0.2258,0.2265,0.2417,0.2413,0.2557,0.2696,0.2553,0.2369,0.2367,0.2365,0,0.1981,0.2041,0.2079,0.21,0.2153,0.2174,0.2201,0.2238,0.2277,0.232,0.2376,0.2373,0.2424,0.2408,0.2447,0.2363,0.2538,0.2417,0.261,0.2625,0.2607,0.262,0.2618,0.2459,0.2459,0.2458,0.2458,0,0.2014,0.2051,0.2081,0.2106,0.2161,0.2184,0.2245,0.228,0.2341,0.2418,0.2419,0.2513,0.2469,0.2566,0.2531,0.2689,0.2625,0.2667,0.27,0.2638,0.265,0.2531,0.2447,0.2466,0.2465,0.2463,0.2462,0,0.2047,0.2057,0.2112,0.2156,0.2169,0.2215,0.2291,0.2334,0.2403,0.2519,0.255,0.2657,0.2817,0.284,0.2884,0.2869,0.288,0.2997,0.2986,0.3014,0.3026,0.2948,0.2953,0.2864,0.3221,0.3226,0.3232,0,0.2083,0.2109,0.2158,0.218,0.2205,0.2261,0.2302,0.2363,0.2429,0.2625,0.2698,0.2902,0.3037,0.3256,0.3296,0.338,0.3155,0.3392,0.3197,0.309,0.3022,0.2836,0.2741,0.3207,0.3211,0.3215,0.3218,0,0.2152,0.2159,0.2186,0.2239,0.2274,0.2323,0.2389,0.2441,0.2546,0.2665,0.2847,0.2967,0.328,0.3386,0.359,0.3606,0.3247,0.3475,0.3312,0.3011,0.2852,0.2762,0.3045,0.325,0.3247,0.3244,0.3243,0.3241,0.2194,0.223,0.2242,0.2295,0.2327,0.2352,0.2372,0.2453,0.2551,0.2713,0.2893,0.3088,0.3339,0.3628,0.3652,0.3678,0.3536,0.3505,0.3429,0.3258,0.3135,0.3575,0.3846,0.3846,0.3847,0.3847,0.3847,0,0.2238,0.2252,0.2297,0.2315,0.2332,0.2353,0.2407,0.2417,0.2499,0.2713,0.2872,0.3169,0.3363,0.353,0.3668,0.356,0.3331,0.3458,0.3073,0.2982,0.3335,0.3295,0.3521,0.3521,0.3521,0.3522,0.3522,0.3522,0.2248,0.2272,0.2288,0.2296,0.2306,0.2291,0.2295,0.2331,0.2448,0.2617,0.2795,0.2984,0.3236,0.3455,0.3422,0.3364,0.2995,0.2995,0.2871,0.3002,0.2992,0.2983,0.292,0.3065,0.3064,0.2386,0.2381,0.2377]},{"header":{"parameterUnit":"m.s-1","parameterCategory":2,"la1":30.2991,"la2":30.254,"lo1":-89.0895,"lo2":-89.0444,"dy":0.0017,"dx":0.0017,"nx":28,"ny":28,"refTime":"2025-08-16T21:00:00:Z","depth":"0","parameterNumber":3,"parameterNumberName":"V-component_of_CURRENTS"},"data":[0,0,0,0,0,0,0,0,0,0,0,0,0,0,0,0,0,0,0,0,0,0,0,0,0,0,0,0,0,0,0,0,0,0,0,0,0,0,0,0,0,0,0,0,0,0,0,0,0,0,0,0,0,0,0,0,0,0,-0.1097,-0.1098,0,-0.1184,-0.1185,-0.1186,-0.1211,-0.1211,-0.1211,-0.1211,-0.1358,-0.1362,-0.1366,0,0,0,0,0,0,0,0,0,0,0,0,0,-0.0941,-0.0943,-0.1097,-0.1099,-0.11,-0.1184,-0.1185,-0.1186,-0.1211,-0.1211,-0.1211,-0.1211,-0.1357,-0.1361,-0.1366,0,0,0,0,0,0,0,0,0,0,0,0,0,-0.1011,-0.0944,-0.1097,-0.1127,-0.1131,-0.1184,-0.1185,-0.1186,-0.1211,-0.1211,-0.1211,-0.1211,-0.1355,-0.1361,-0.1367,-0.1403,0,0,-0.1384,-0.1387,0,0,0,0,0,0,0,0,-0.1007,-0.1017,-0.1121,-0.1125,-0.1129,-0.1191,-0.1184,-0.1263,-0.1211,-0.1176,-0.1211,-0.1211,-0.1311,-0.1321,-0.1329,-0.1409,-0.1416,-0.1385,-0.1389,-0.1391,-0.1393,0,0,0,0,0,0,0,-0.1002,-0.1013,-0.1127,-0.1123,-0.1128,-0.1132,-0.1142,-0.1198,-0.1239,-0.1179,-0.1182,-0.12,-0.1313,-0.1323,-0.1333,-0.1418,-0.1385,-0.139,-0.1394,-0.1396,-0.1546,-0.1546,0,0,0,0,0,0,-0.1003,-0.1009,-0.1124,-0.113,-0.1073,-0.1135,-0.1146,-0.1167,-0.1238,-0.1249,-0.12,-0.1201,-0.1313,-0.1326,-0.1338,-0.1397,-0.1391,-0.1397,-0.14,-0.1545,-0.1546,-0.1546,0,0,0,0,0,0,-0.0999,-0.1012,-0.112,-0.1074,-0.1089,-0.1139,-0.1162,-0.1169,-0.1183,-0.1254,-0.1266,-0.1207,-0.1314,-0.133,-0.1384,-0.1403,-0.1399,-0.1404,-0.1545,-0.1545,-0.1546,-0.1508,0,0,0,0,0,0,-0.0994,-0.1011,-0.102,-0.1075,-0.1092,-0.1146,-0.1163,-0.1171,-0.1197,-0.1199,-0.1265,-0.1278,-0.1315,-0.1375,-0.139,-0.1411,-0.1409,-0.1544,-0.1545,-0.1546,-0.1508,-0.1507,-0.1506,0,0,0,0,0,-0.0988,-0.1006,-0.102,-0.1034,-0.1105,-0.1147,-0.1155,-0.1186,-0.1197,-0.1199,-0.1243,-0.1276,-0.1391,-0.138,-0.1397,-0.142,-0.1544,-0.1545,-0.1546,-0.1509,-0.1507,-0.1506,0,0,0,0,0,0,-0.0948,-0.1013,-0.1028,-0.1066,-0.11,-0.1153,-0.1169,-0.1187,-0.1222,-0.1228,-0.1284,-0.13,-0.1353,-0.1391,-0.1377,-0.1465,-0.1473,-0.1478,-0.1439,-0.1438,-0.1437,-0.1409,-0.1414,0,0,0,0,0,-0.0943,-0.0968,-0.1027,-0.1053,-0.1075,-0.1119,-0.114,-0.1159,-0.1203,-0.1217,-0.1257,-0.1311,-0.1371,-0.1406,-0.1452,-0.1506,-0.1511,-0.1532,-0.153,-0.1529,-0.1518,-0.1558,-0.1559,-0.155,-0.155,-0.155,0,0,-0.0937,-0.0974,-0.0989,-0.1044,-0.1078,-0.1097,-0.113,-0.1162,-0.1175,-0.1232,-0.1256,-0.1306,-0.1382,-0.1433,-0.1462,-0.147,-0.1525,-0.153,-0.1529,-0.1518,-0.1559,-0.156,-0.156,-0.1551,-0.155,-0.155,0,0,-0.0922,-0.097,-0.0977,-0.1002,-0.1049,-0.1083,-0.1091,-0.1137,-0.1158,-0.1191,-0.124,-0.1293,-0.1369,-0.1425,-0.1469,-0.1492,-0.1512,-0.1514,-0.1496,-0.1535,-0.1536,-0.1537,-0.15,-0.1498,-0.152,-0.152,-0.152,0,-0.0901,-0.0922,-0.0983,-0.099,-0.1005,-0.1074,-0.1072,-0.1114,-0.1162,-0.1178,-0.119,-0.13,-0.1365,-0.1447,-0.1457,-0.149,-0.1488,-0.1496,-0.1532,-0.1533,-0.1535,-0.1498,-0.1496,-0.1519,-0.1519,-0.1519,-0.1519,0,-0.0888,-0.0897,-0.0908,-0.0937,-0.0965,-0.0977,-0.1043,-0.1068,-0.1102,-0.1132,-0.1196,-0.1279,-0.1337,-0.1383,-0.1433,-0.149,-0.1472,-0.1519,-0.153,-0.1533,-0.1493,-0.1492,-0.1516,-0.1517,-0.1517,-0.1518,0,0,-0.0827,-0.0883,-0.0876,-0.0868,-0.093,-0.0943,-0.099,-0.1035,-0.1035,-0.1111,-0.1108,-0.125,-0.1281,-0.1332,-0.1409,-0.1464,-0.147,-0.1494,-0.1497,-0.1445,-0.1497,-0.1342,-0.1325,-0.1528,-0.1528,-0.1529,-0.1448,0,-0.0779,-0.077,-0.0817,-0.0796,-0.0796,-0.0869,-0.0887,-0.094,-0.0988,-0.0998,-0.1125,-0.1146,-0.1271,-0.1279,-0.1367,-0.1432,-0.1472,-0.1483,-0.1512,-0.1511,-0.1366,-0.1322,-0.1225,-0.1134,-0.1447,-0.1447,-0.1447,0,-0.0721,-0.0724,-0.0696,-0.0704,-0.0709,-0.0705,-0.0733,-0.0753,-0.0825,-0.085,-0.0935,-0.101,-0.1111,-0.1196,-0.134,-0.1339,-0.1412,-0.1474,-0.1474,-0.1342,-0.1355,-0.1193,-0.112,-0.1328,-0.1445,-0.1445,-0.1445,0,-0.0616,-0.0624,-0.0593,-0.0596,-0.0629,-0.0621,-0.0634,-0.0693,-0.0658,-0.0734,-0.0679,-0.0869,-0.0873,-0.1051,-0.1191,-0.1264,-0.1295,-0.141,-0.1341,-0.1328,-0.1255,-0.1234,-0.1377,-0.1501,-0.1501,-0.1502,-0.1502,0,-0.0526,-0.0488,-0.0531,-0.0504,-0.043,-0.0502,-0.0423,-0.0466,-0.046,-0.0356,-0.0567,-0.0494,-0.0837,-0.0905,-0.1101,-0.1161,-0.1224,-0.13,-0.1298,-0.1232,-0.121,-0.1396,-0.1523,-0.1498,-0.1499,-0.15,-0.15,0,-0.0383,-0.0427,-0.0364,-0.0379,-0.0367,-0.0299,-0.0234,-0.0163,-0.0192,-0.0051,-0.0045,-0.0178,-0.0255,-0.0543,-0.0771,-0.0955,-0.1141,-0.1098,-0.0949,-0.0931,-0.1079,-0.1204,-0.1255,-0.1326,-0.102,-0.1016,-0.1013,0,-0.0301,-0.0262,-0.0227,-0.0154,-0.0139,-0.0061,0.0023,-0.0005,0.01,0.019,0.0309,0.0245,0.0267,0.0008,-0.0341,-0.0609,-0.0898,-0.072,-0.0871,-0.1029,-0.1174,-0.1276,-0.1343,-0.0753,-0.0747,-0.0743,-0.0739,0,-0.0116,-0.0107,-0.0058,0.0075,0.0178,0.0293,0.0406,0.0523,0.0552,0.0666,0.0838,0.0862,0.0663,0.0437,0.0057,-0.0177,-0.0805,-0.063,-0.0879,-0.1015,-0.1056,-0.1139,-0.0826,-0.0699,-0.0703,-0.0706,-0.0708,-0.071,0.0054,0.0132,0.0193,0.0322,0.0452,0.0624,0.0722,0.0867,0.1046,0.1212,0.1249,0.1334,0.1004,0.0519,0.0209,-0.0354,-0.0447,-0.0601,-0.0744,-0.0836,-0.0899,-0.0428,-0.0255,-0.0256,-0.0257,-0.0258,-0.0259,0,0.0247,0.0298,0.0439,0.0575,0.0734,0.0752,0.0963,0.1051,0.126,0.1477,0.1605,0.1557,0.1161,0.0641,-0.0051,-0.0447,-0.0683,-0.0719,-0.0939,-0.1013,-0.0663,-0.065,-0.0451,-0.0451,-0.0451,-0.0451,-0.045,-0.045,0.0349,0.0481,0.0514,0.0773,0.088,0.1054,0.1156,0.1308,0.1457,0.1689,0.1787,0.1838,0.1474,0.0271,-0.0592,-0.0801,-0.1179,-0.1139,-0.1379,-0.1256,-0.1261,-0.1267,-0.129,-0.1229,-0.123,-0.1678,-0.1683,-0.1686]}],[{"header":{"parameterUnit":"m.s-1","parameterCategory":2,"la1":30.2991,"la2":30.254,"lo1":-89.0895,"lo2":-89.0444,"dy":0.0017,"dx":0.0017,"nx":28,"ny":28,"refTime":"2025-08-16T21:00:00:Z","depth":"2","parameterNumber":2,"parameterNumberName":"U-component_of_CURRENTS"},"data":[0,0,0,0,0,0,0,0,0,0,0,0,0,0,0,0,0,0,0,0,0,0,0,0,0,0,0,0,0,0,0,0,0,0,0,0,0,0,0,0,0,0,0,0,0,0,0,0,0,0,0,0,0,0,0,0,0,0,0.2084,0.2086,0,0.2226,0.2228,0.223,0.2291,0.229,0.229,0.2289,0.2309,0.231,0.2311,0,0,0,0,0,0,0,0,0,0,0,0,0,0.2057,0.2056,0.2084,0.2086,0.2088,0.2226,0.2228,0.223,0.2291,0.229,0.229,0.2289,0.2309,0.231,0.2311,0,0,0,0,0,0,0,0,0,0,0,0,0,0.2122,0.2056,0.2084,0.2133,0.2139,0.2226,0.2228,0.2231,0.2291,0.229,0.229,0.2289,0.2309,0.231,0.2311,0.2333,0,0,0.2316,0.2316,0,0,0,0,0,0,0,0,0.2118,0.2123,0.2124,0.213,0.2136,0.2238,0.2226,0.2258,0.2291,0.2235,0.2289,0.2289,0.2273,0.2278,0.231,0.2334,0.2334,0.2316,0.2317,0.2317,0.2318,0,0,0,0,0,0,0,0.2113,0.2119,0.2143,0.2126,0.2133,0.2213,0.222,0.2234,0.2255,0.224,0.2244,0.2257,0.2276,0.2309,0.2311,0.2335,0.2316,0.2317,0.2318,0.2318,0.2481,0.2484,0,0,0,0,0,0,0.2082,0.2113,0.2138,0.2147,0.2123,0.2213,0.2221,0.2208,0.2258,0.2266,0.2257,0.2259,0.2307,0.2309,0.2311,0.2363,0.2317,0.2318,0.2319,0.2478,0.2482,0.2486,0,0,0,0,0,0,0.2081,0.2082,0.2132,0.2134,0.2145,0.2213,0.2198,0.2211,0.2259,0.2272,0.2278,0.2294,0.2307,0.231,0.2318,0.2363,0.2319,0.232,0.2474,0.2479,0.2484,0.2451,0,0,0,0,0,0,0.2079,0.208,0.209,0.213,0.2144,0.2168,0.2199,0.2214,0.2266,0.2271,0.2305,0.2306,0.2306,0.2316,0.2319,0.2364,0.2321,0.2469,0.2476,0.2482,0.2447,0.2454,0.246,0,0,0,0,0,0.2077,0.2059,0.2088,0.2094,0.2143,0.2167,0.2182,0.2232,0.2268,0.2277,0.2302,0.2305,0.2363,0.2317,0.2321,0.2368,0.2466,0.2474,0.2482,0.2444,0.2453,0.246,0,0,0,0,0,0,0.2038,0.2065,0.2097,0.2087,0.2126,0.2176,0.2196,0.2244,0.2281,0.2287,0.231,0.2311,0.2355,0.2372,0.2322,0.2448,0.2433,0.2442,0.2404,0.2412,0.2418,0.2438,0.2323,0,0,0,0,0,0.2039,0.205,0.2079,0.2085,0.2089,0.2157,0.2188,0.2219,0.2249,0.2269,0.2304,0.2352,0.2395,0.2403,0.2443,0.2475,0.2502,0.2529,0.2535,0.254,0.2568,0.262,0.2631,0.2511,0.2511,0.2511,0,0,0.2031,0.2052,0.2059,0.2084,0.2116,0.2139,0.2172,0.2201,0.2253,0.226,0.2334,0.2366,0.2413,0.246,0.2485,0.2469,0.259,0.255,0.2552,0.2579,0.2629,0.264,0.265,0.2517,0.2516,0.2515,0,0,0.2014,0.2026,0.203,0.2057,0.2102,0.2137,0.2147,0.2205,0.2254,0.2308,0.2354,0.2403,0.2463,0.251,0.2539,0.2611,0.2626,0.2648,0.2676,0.2725,0.2734,0.2742,0.2774,0.2786,0.2642,0.2642,0.2642,0,0.2029,0.202,0.2039,0.2051,0.2093,0.2134,0.2162,0.2208,0.2281,0.2341,0.2323,0.2482,0.2496,0.259,0.2615,0.2622,0.2647,0.2622,0.2727,0.2736,0.2744,0.2776,0.2788,0.2641,0.2642,0.2642,0.2642,0,0.2003,0.2022,0.2016,0.2061,0.2103,0.2121,0.2181,0.2243,0.2309,0.2374,0.2487,0.2512,0.2611,0.2634,0.2631,0.2736,0.2732,0.2722,0.2686,0.2753,0.2783,0.2797,0.2641,0.2641,0.2641,0.2641,0,0,0.1984,0.2006,0.2011,0.2052,0.2116,0.2146,0.2229,0.2326,0.2396,0.2472,0.2574,0.2657,0.2692,0.2734,0.2758,0.2792,0.2848,0.278,0.2783,0.2776,0.295,0.2877,0.2885,0.2843,0.2846,0.2848,0.2937,0,0.1983,0.2004,0.2032,0.2095,0.2114,0.22,0.2276,0.2379,0.2455,0.2546,0.2625,0.2698,0.2724,0.2746,0.2803,0.2838,0.2888,0.2826,0.2921,0.2925,0.2821,0.29,0.2647,0.27,0.295,0.2952,0.2954,0,0.1947,0.1984,0.2025,0.2133,0.2151,0.2198,0.2349,0.2421,0.255,0.2608,0.2713,0.2759,0.2857,0.2831,0.2967,0.2923,0.2959,0.2974,0.2977,0.2937,0.2879,0.2684,0.2715,0.2977,0.2975,0.2974,0.2972,0,0.192,0.1985,0.2031,0.2061,0.2171,0.2237,0.2308,0.2442,0.2521,0.263,0.2685,0.2811,0.2866,0.294,0.3016,0.2984,0.3138,0.3088,0.3071,0.3065,0.2888,0.2862,0.3198,0.3197,0.3197,0.3197,0.3197,0,0.1904,0.1946,0.2011,0.2039,0.2122,0.221,0.2308,0.2398,0.2513,0.2618,0.2702,0.2789,0.2896,0.3003,0.3045,0.3119,0.3178,0.3107,0.3097,0.2871,0.2843,0.3118,0.3108,0.32,0.32,0.3199,0.3198,0,0.1879,0.1902,0.1972,0.2078,0.2099,0.2168,0.2288,0.2377,0.2463,0.2597,0.263,0.2789,0.2915,0.3029,0.3143,0.3152,0.3208,0.3225,0.2949,0.2904,0.3087,0.3075,0.3185,0.3184,0.3183,0.3182,0.3181,0,0.1878,0.1893,0.1984,0.2039,0.2087,0.217,0.2247,0.234,0.2436,0.2609,0.2688,0.2826,0.2928,0.3064,0.3077,0.3135,0.3233,0.2947,0.284,0.3115,0.3094,0.3083,0.3073,0.2588,0.2582,0.2577,0.2574,0,0.1929,0.1945,0.2023,0.2075,0.2149,0.2216,0.2315,0.2356,0.2503,0.2583,0.2706,0.2762,0.2884,0.2811,0.2888,0.2887,0.2901,0.2852,0.3233,0.2629,0.2558,0.2535,0.2543,0.2532,0.2536,0.2539,0.2542,0.2543,0.2008,0.2044,0.2108,0.2154,0.2227,0.2261,0.2275,0.2387,0.2454,0.2499,0.2612,0.2586,0.2614,0.2554,0.253,0.2514,0.2694,0.2586,0.2598,0.2615,0.2529,0.246,0.2399,0.2402,0.2405,0.2407,0.241,0,0.2096,0.211,0.2185,0.2221,0.2257,0.2275,0.2336,0.2301,0.2334,0.2354,0.2354,0.2132,0.2096,0.2153,0.2049,0.2068,0.2017,0.2011,0.1921,0.1964,0.2003,0.1882,0.1582,0.158,0.1577,0.1575,0,0,0.2152,0.2194,0.2175,0.2208,0.2233,0.2196,0.2189,0.2142,0.2115,0.1952,0.1865,0.191,0.2048,0.1761,0.1753,0.1655,0.1788,0.1592,0.2255,0.2189,0.2224,0.2337,0.2201,0,0,0,0,0]},{"header":{"parameterUnit":"m.s-1","parameterCategory":2,"la1":30.2991,"la2":30.254,"lo1":-89.0895,"lo2":-89.0444,"dy":0.0017,"dx":0.0017,"nx":28,"ny":28,"refTime":"2025-08-16T21:00:00:Z","depth":"2","parameterNumber":3,"parameterNumberName":"V-component_of_CURRENTS"},"data":[0,0,0,0,0,0,0,0,0,0,0,0,0,0,0,0,0,0,0,0,0,0,0,0,0,0,0,0,0,0,0,0,0,0,0,0,0,0,0,0,0,0,0,0,0,0,0,0,0,0,0,0,0,0,0,0,0,0,0.0224,0.0224,0,0.0179,0.0178,0.0177,0.0103,0.0102,0.0101,0.01,0.0033,0.0032,0.0031,0,0,0,0,0,0,0,0,0,0,0,0,0,0.0153,0.0155,0.0224,0.0224,0.0223,0.0179,0.0178,0.0177,0.0103,0.0102,0.0101,0.01,0.0033,0.0032,0.0031,0,0,0,0,0,0,0,0,0,0,0,0,0,0.015,0.0156,0.0224,0.0184,0.018,0.0179,0.0178,0.0177,0.0103,0.0102,0.01,0.0099,0.0034,0.0032,0.0031,0.0054,0,0,0.0027,0.0027,0,0,0,0,0,0,0,0,0.0151,0.0153,0.019,0.0187,0.0183,0.0148,0.0129,0.0136,0.0104,0.0129,0.01,0.0098,0.0073,0.0069,0.0059,0.0051,0.0048,0.0027,0.0027,0.0026,0.0026,0,0,0,0,0,0,0,0.0151,0.0154,0.0202,0.019,0.0185,0.0137,0.0135,0.0129,0.0107,0.0126,0.0122,0.0123,0.007,0.006,0.0056,0.0047,0.0027,0.0026,0.0025,0.0025,0.0002,0.0002,0,0,0,0,0,0,0.0171,0.0155,0.0204,0.0201,0.0167,0.014,0.0138,0.0158,0.0107,0.0099,0.0125,0.012,0.0063,0.0058,0.0054,0.0062,0.0026,0.0025,0.0024,0.0001,0.0002,0.0002,0,0,0,0,0,0,0.017,0.0177,0.0206,0.0178,0.0179,0.0144,0.0166,0.0158,0.0138,0.0107,0.0097,0.0113,0.0061,0.0056,0.0047,0.006,0.0024,0.0023,0.0001,0.0001,0.0002,0.009,0,0,0,0,0,0,0.0169,0.0177,0.0188,0.0181,0.0182,0.0218,0.0168,0.0158,0.0144,0.0137,0.0094,0.0087,0.006,0.0049,0.0046,0.0057,0.0022,0.0001,0.0001,0.0002,0.0087,0.0093,0.0098,0,0,0,0,0,0.0167,0.0204,0.019,0.0195,0.0202,0.022,0.0216,0.0181,0.0145,0.0153,0.0115,0.0087,0.0047,0.0049,0.0045,0.0056,0.0001,0.0001,0.0002,0.0084,0.0092,0.0098,0,0,0,0,0,0,0.0185,0.02,0.0184,0.0224,0.0224,0.0209,0.0214,0.0185,0.016,0.0147,0.0101,0.0093,0.0085,0.0059,0.0062,0.0046,0.0015,0.0014,0.0079,0.0086,0.0092,0.0095,0.0021,0,0,0,0,0,0.0196,0.022,0.0225,0.0254,0.0259,0.0232,0.0229,0.021,0.0192,0.0178,0.0148,0.011,0.0086,0.0077,0.0054,0.006,0.0026,0.0058,0.0064,0.0069,0.0066,0.0042,0.0046,0.0003,0.0003,0.0003,0,0,0.0209,0.0221,0.0232,0.0257,0.0251,0.0272,0.0226,0.0236,0.0239,0.0178,0.0171,0.0135,0.009,0.0088,0.0081,0.0068,0.0062,0.0069,0.0074,0.0068,0.0043,0.0047,0.0051,0.0003,0.0003,0.0003,0,0,0.0252,0.0263,0.0293,0.0304,0.031,0.0301,0.0306,0.0296,0.0275,0.0272,0.0219,0.0195,0.0162,0.0137,0.0116,0.0142,0.0092,0.0125,0.0164,0.0141,0.0145,0.0148,0.0111,0.011,0.0131,0.0131,0.0131,0,0.0255,0.0302,0.0304,0.0338,0.0341,0.0319,0.0343,0.0337,0.0319,0.0302,0.0279,0.021,0.0186,0.0165,0.0171,0.0158,0.0125,0.0147,0.0151,0.0153,0.0154,0.0115,0.0113,0.0135,0.0135,0.0134,0.0134,0,0.0326,0.0352,0.0377,0.0405,0.0415,0.0438,0.0434,0.043,0.0395,0.0376,0.0343,0.0302,0.0249,0.0247,0.0219,0.0211,0.0178,0.0163,0.014,0.0165,0.0121,0.0117,0.0142,0.014,0.0139,0.0138,0,0,0.0338,0.0407,0.0409,0.0427,0.0446,0.0465,0.0474,0.047,0.0463,0.0437,0.0413,0.0378,0.0332,0.0304,0.0263,0.0256,0.0249,0.0218,0.0215,0.0193,0.0182,0.0132,0.0122,0.0234,0.0234,0.0234,0.0148,0,0.0372,0.0446,0.0465,0.0514,0.0542,0.0527,0.0532,0.0525,0.0504,0.0487,0.0434,0.0401,0.0361,0.0328,0.0314,0.0256,0.0241,0.0272,0.015,0.0146,0.0109,0.0117,0.0109,0.003,0.0144,0.0143,0.0143,0,0.0413,0.0456,0.0511,0.0548,0.0557,0.058,0.0569,0.0571,0.0545,0.0521,0.0478,0.0434,0.0391,0.0364,0.0276,0.0292,0.0242,0.021,0.0205,0.0123,0.0089,0.0022,0.0018,0.0135,0.0136,0.0136,0.0137,0,0.0408,0.0477,0.0517,0.0536,0.0581,0.0583,0.0586,0.057,0.0576,0.0534,0.0541,0.0458,0.0429,0.0347,0.0267,0.0262,0.0186,0.0166,0.0075,0.007,0.002,0.0011,0.012,0.0121,0.0121,0.0121,0.0121,0,0.0426,0.0457,0.0521,0.0553,0.058,0.0589,0.0607,0.0593,0.0589,0.0631,0.0549,0.0569,0.043,0.0373,0.0277,0.0155,0.018,0.0075,0.0046,0.0048,0.0043,0.0099,0.0098,0.0118,0.0118,0.0119,0.012,0,0.0404,0.0454,0.0501,0.056,0.0584,0.0587,0.0641,0.0669,0.0646,0.0699,0.069,0.0643,0.0555,0.042,0.0294,0.0179,0.0063,0.0024,0.0026,-0.0002,-0.0047,-0.0043,-0.0119,-0.0121,-0.0123,-0.0125,-0.0126,0,0.0395,0.0423,0.0506,0.0553,0.0584,0.0617,0.0663,0.0675,0.0741,0.0773,0.0827,0.0744,0.0715,0.0468,0.0241,0.0019,0.0051,-0.0118,-0.0129,-0.005,-0.0071,-0.0063,-0.0057,-0.0162,-0.0164,-0.0165,-0.0166,0,0.0376,0.0403,0.046,0.0569,0.0638,0.0715,0.0801,0.0855,0.0905,0.0953,0.1013,0.097,0.073,0.0478,0.0156,0.0017,-0.0101,-0.0154,-0.0068,-0.0099,-0.0098,-0.0116,-0.0107,-0.0178,-0.0177,-0.0176,-0.0175,-0.0175,0.0358,0.0392,0.0503,0.0582,0.0691,0.0825,0.0891,0.1015,0.1106,0.1166,0.1133,0.106,0.0775,0.0326,0.0074,-0.0195,-0.0179,-0.027,-0.0263,-0.0255,-0.0243,-0.0246,-0.0353,-0.0352,-0.0352,-0.0352,-0.0352,0,0.0366,0.0444,0.053,0.0663,0.0785,0.0848,0.1014,0.1096,0.1229,0.1231,0.1226,0.0935,0.0637,0.0353,-0.0076,-0.0337,-0.0336,-0.0392,-0.0331,-0.0319,-0.0309,-0.0297,-0.0422,-0.0422,-0.0423,-0.0423,0,0,0.0399,0.0491,0.0534,0.0724,0.0832,0.1024,0.1117,0.1246,0.1306,0.1263,0.1181,0.1028,0.0698,0.0385,0.0037,-0.0184,-0.0186,-0.0229,-0.0155,-0.0034,-0.002,-0.0234,-0.0203,0,0,0,0,0]}],[{"header":{"parameterUnit":"m.s-1","parameterCategory":2,"la1":30.2991,"la2":30.254,"lo1":-89.0895,"lo2":-89.0444,"dy":0.0017,"dx":0.0017,"nx":28,"ny":28,"refTime":"2025-08-16T21:00:00:Z","depth":"4","parameterNumber":2,"parameterNumberName":"U-component_of_CURRENTS"},"data":[0,0,0,0,0,0,0,0,0,0,0,0,0,0,0,0,0,0,0,0,0,0,0,0,0,0,0,0,0,0,0,0,0,0,0,0,0,0,0,0,0,0,0,0,0,0,0,0,0,0,0,0,0,0,0,0,0,0,0.0939,0.0939,0,0.0953,0.0953,0.0953,0.0994,0.0994,0.0995,0.0996,0.1089,0.1091,0.1092,0,0,0,0,0,0,0,0,0,0,0,0,0,0.0895,0.0896,0.0939,0.0939,0.0939,0.0952,0.0953,0.0953,0.0993,0.0994,0.0995,0.0996,0.1088,0.1091,0.1093,0,0,0,0,0,0,0,0,0,0,0,0,0,0.0913,0.0897,0.0939,0.096,0.0962,0.0952,0.0953,0.0953,0.0993,0.0994,0.0996,0.0997,0.1088,0.109,0.1093,0.1084,0,0,0.1101,0.1102,0,0,0,0,0,0,0,0,0.0912,0.0915,0.0957,0.0959,0.0961,0.0972,0.0971,0.1001,0.0993,0.0982,0.0996,0.0997,0.1056,0.1061,0.1061,0.1089,0.1093,0.1101,0.1103,0.1104,0.1104,0,0,0,0,0,0,0,0.0911,0.0914,0.0945,0.0957,0.0959,0.0951,0.0955,0.0977,0.1014,0.0983,0.0986,0.0986,0.1058,0.1058,0.1064,0.1094,0.1101,0.1103,0.1105,0.1106,0.1205,0.1206,0,0,0,0,0,0,0.0909,0.0913,0.0945,0.0945,0.0938,0.0951,0.0956,0.0968,0.1012,0.1019,0.0985,0.0988,0.1053,0.1061,0.1067,0.115,0.1104,0.1106,0.1108,0.1204,0.1205,0.1206,0,0,0,0,0,0,0.0908,0.0912,0.0944,0.0928,0.0932,0.0951,0.0963,0.0967,0.0991,0.1012,0.1022,0.1007,0.1055,0.1064,0.1135,0.1151,0.1107,0.111,0.1203,0.1204,0.1206,0.1258,0,0,0,0,0,0,0.0907,0.0912,0.0928,0.0928,0.0932,0.0956,0.0962,0.0967,0.0987,0.0992,0.1034,0.1042,0.1056,0.1131,0.1137,0.1153,0.1112,0.1201,0.1203,0.1205,0.1255,0.1261,0.1266,0,0,0,0,0,0.0906,0.0918,0.0929,0.0933,0.0952,0.0957,0.0959,0.0976,0.0987,0.1001,0.1052,0.1042,0.1147,0.1135,0.1142,0.1159,0.12,0.1203,0.1205,0.1252,0.126,0.1266,0,0,0,0,0,0,0.0909,0.0924,0.0935,0.0954,0.0964,0.0964,0.0981,0.0985,0.103,0.1053,0.1072,0.1084,0.1151,0.1147,0.1133,0.1192,0.1165,0.1169,0.1198,0.1205,0.1211,0.123,0.1114,0,0,0,0,0,0.0915,0.0932,0.0941,0.0958,0.097,0.0978,0.0986,0.0999,0.103,0.1051,0.1084,0.1121,0.1158,0.118,0.1214,0.1249,0.1264,0.1258,0.1264,0.1269,0.1288,0.1342,0.1355,0.1214,0.1214,0.1214,0,0,0.0919,0.093,0.094,0.096,0.0975,0.0992,0.0988,0.1012,0.1033,0.1055,0.1118,0.1153,0.1176,0.1229,0.1253,0.1232,0.1313,0.1272,0.1276,0.1293,0.1346,0.136,0.1373,0.1216,0.1216,0.1216,0,0,0.0926,0.0952,0.0968,0.0981,0.1007,0.1016,0.1027,0.1051,0.1076,0.1133,0.1157,0.1214,0.126,0.1285,0.1299,0.1354,0.1351,0.1349,0.1388,0.144,0.1452,0.1464,0.1486,0.1499,0.1341,0.1341,0.1341,0,0.0928,0.0953,0.0972,0.099,0.1004,0.103,0.1048,0.1073,0.1119,0.115,0.1167,0.1275,0.1288,0.1352,0.137,0.1368,0.1393,0.1359,0.1449,0.1461,0.1471,0.1492,0.1505,0.1344,0.1344,0.1344,0.1343,0,0.0944,0.0969,0.0982,0.1018,0.1037,0.1059,0.1092,0.1125,0.1165,0.12,0.1295,0.1344,0.141,0.1406,0.1408,0.1481,0.1472,0.146,0.1434,0.1489,0.1506,0.1519,0.1348,0.1347,0.1346,0.1346,0,0,0.0924,0.0981,0.0987,0.1,0.1055,0.106,0.1114,0.1161,0.121,0.1282,0.1359,0.1426,0.1481,0.1501,0.1517,0.1551,0.163,0.154,0.1541,0.1566,0.174,0.1606,0.1607,0.1643,0.1646,0.1648,0.1716,0,0.0928,0.0968,0.0995,0.1024,0.1047,0.1083,0.1132,0.1185,0.1254,0.1341,0.1414,0.151,0.1508,0.1563,0.1605,0.1621,0.1671,0.1612,0.168,0.1681,0.156,0.162,0.1658,0.1726,0.1729,0.1731,0.1733,0,0.0927,0.0956,0.0999,0.1034,0.1048,0.108,0.1158,0.1196,0.1321,0.1397,0.1517,0.1589,0.1674,0.1672,0.176,0.1727,0.1756,0.1764,0.1766,0.1638,0.1573,0.1662,0.1756,0.1754,0.1753,0.1751,0.175,0,0.0899,0.094,0.0976,0.0991,0.1055,0.1083,0.1118,0.1228,0.1289,0.1451,0.1541,0.1665,0.1747,0.1802,0.183,0.1811,0.1914,0.1881,0.1798,0.1787,0.1864,0.1852,0.1981,0.1981,0.1981,0.1981,0.1981,0,0.0881,0.0896,0.0971,0.0986,0.1036,0.1077,0.116,0.1223,0.1359,0.1458,0.1582,0.1683,0.1791,0.1858,0.187,0.1864,0.1955,0.1824,0.1807,0.188,0.1869,0.1872,0.1859,0.1983,0.1983,0.1982,0.1982,0,0.084,0.0894,0.0919,0.0994,0.1029,0.1059,0.1174,0.1239,0.1368,0.1502,0.1565,0.1719,0.1791,0.1864,0.1945,0.19,0.1909,0.19,0.1972,0.1954,0.1737,0.1726,0.1797,0.1793,0.179,0.1787,0.1785,0,0.0823,0.0843,0.0924,0.0956,0.0995,0.1067,0.114,0.1259,0.1343,0.1504,0.1569,0.169,0.1783,0.1782,0.1853,0.1876,0.1868,0.1865,0.1806,0.1748,0.1725,0.1718,0.1711,0.178,0.1779,0.1778,0.1777,0,0.0769,0.081,0.0837,0.0923,0.0992,0.1043,0.1146,0.1205,0.1344,0.149,0.1558,0.1596,0.1676,0.1711,0.1756,0.1767,0.1846,0.183,0.1836,0.1781,0.1727,0.1706,0.1703,0.1766,0.1767,0.1768,0.1769,0,0.0716,0.0719,0.0774,0.0835,0.0926,0.0956,0.1033,0.1128,0.1213,0.1415,0.1434,0.1541,0.1666,0.1657,0.1684,0.1689,0.1661,0.1611,0.1629,0.1642,0.1557,0.1464,0.1424,0,0,0,0,0,0.063,0.0612,0.0675,0.0703,0.0807,0.0856,0.1004,0.1091,0.1268,0.1296,0.1359,0.1428,0.146,0.1508,0.148,0.159,0.1649,0.155,0.1595,0.1702,0.1715,0.1627,0,0,0,0,0,0,0.054,0.058,0.0615,0.0601,0.062,0.0697,0.0791,0.0917,0.0955,0.1145,0.1178,0.1324,0.1381,0.1445,0.1437,0.1456,0.1455,0.1635,0.1631,0.1695,0.1707,0.1717,0.1632,0,0,0,0,0]},{"header":{"parameterUnit":"m.s-1","parameterCategory":2,"la1":30.2991,"la2":30.254,"lo1":-89.0895,"lo2":-89.0444,"dy":0.0017,"dx":0.0017,"nx":28,"ny":28,"refTime":"2025-08-16T21:00:00:Z","depth":"4","parameterNumber":3,"parameterNumberName":"V-component_of_CURRENTS"},"data":[0,0,0,0,0,0,0,0,0,0,0,0,0,0,0,0,0,0,0,0,0,0,0,0,0,0,0,0,0,0,0,0,0,0,0,0,0,0,0,0,0,0,0,0,0,0,0,0,0,0,0,0,0,0,0,0,0,0,0.0257,0.0257,0,0.0246,0.0246,0.0246,0.023,0.023,0.023,0.023,0.0193,0.0192,0.0191,0,0,0,0,0,0,0,0,0,0,0,0,0,0.0216,0.0217,0.0257,0.0257,0.0257,0.0246,0.0246,0.0246,0.0231,0.023,0.023,0.023,0.0193,0.0192,0.0191,0,0,0,0,0,0,0,0,0,0,0,0,0,0.0221,0.0217,0.0257,0.0249,0.0248,0.0246,0.0246,0.0246,0.0231,0.023,0.023,0.023,0.0194,0.0192,0.0191,0.0187,0,0,0.0187,0.0187,0,0,0,0,0,0,0,0,0.0221,0.0223,0.025,0.025,0.0249,0.0241,0.0218,0.0225,0.0231,0.0236,0.023,0.023,0.0208,0.0205,0.0202,0.0186,0.0184,0.0187,0.0186,0.0186,0.0185,0,0,0,0,0,0,0,0.0221,0.0223,0.0251,0.025,0.0249,0.023,0.023,0.0219,0.0221,0.0235,0.0235,0.0236,0.0207,0.0203,0.0201,0.0184,0.0187,0.0186,0.0185,0.0185,0.0166,0.0167,0,0,0,0,0,0,0.0228,0.0223,0.0252,0.0251,0.0236,0.0231,0.0232,0.0242,0.0222,0.0219,0.0236,0.0235,0.0206,0.0203,0.02,0.0209,0.0186,0.0185,0.0184,0.0166,0.0166,0.0167,0,0,0,0,0,0,0.0227,0.0231,0.0252,0.0237,0.0238,0.0232,0.0244,0.0242,0.0246,0.0223,0.0219,0.0242,0.0205,0.0201,0.0196,0.0207,0.0184,0.0183,0.0166,0.0166,0.0167,0.0218,0,0,0,0,0,0,0.0226,0.0231,0.0239,0.0238,0.024,0.0257,0.0244,0.0242,0.0247,0.0246,0.0227,0.0223,0.0205,0.0199,0.0195,0.0205,0.0182,0.0165,0.0166,0.0166,0.0216,0.0221,0.0224,0,0,0,0,0,0.0225,0.0238,0.024,0.0243,0.0252,0.0257,0.0256,0.0249,0.0248,0.0251,0.024,0.0224,0.0199,0.0198,0.0194,0.0203,0.0165,0.0166,0.0166,0.0215,0.022,0.0224,0,0,0,0,0,0,0.0224,0.0238,0.0239,0.0257,0.0259,0.0255,0.0257,0.0257,0.0251,0.0251,0.023,0.0225,0.0222,0.0206,0.0205,0.0198,0.0179,0.0179,0.0217,0.0221,0.0225,0.0242,0.0181,0,0,0,0,0,0.0229,0.0246,0.025,0.0265,0.0267,0.0265,0.0266,0.0266,0.0262,0.0259,0.0248,0.0233,0.0221,0.0217,0.0201,0.0202,0.0176,0.0203,0.0207,0.0211,0.0221,0.0185,0.0187,0.0169,0.0169,0.0169,0,0,0.0234,0.0243,0.0253,0.0267,0.0267,0.0282,0.0265,0.0274,0.0288,0.0256,0.0267,0.0246,0.0223,0.0221,0.0219,0.0211,0.0202,0.0212,0.0215,0.0224,0.0186,0.0188,0.0189,0.0169,0.0169,0.0169,0,0,0.0254,0.026,0.028,0.0286,0.0295,0.0295,0.0303,0.0305,0.0304,0.0313,0.029,0.0277,0.0266,0.0248,0.0238,0.0254,0.0222,0.025,0.0288,0.0253,0.0254,0.0255,0.0224,0.0221,0.0255,0.0255,0.0255,0,0.0258,0.0288,0.0285,0.0305,0.0317,0.0307,0.0333,0.033,0.0332,0.0337,0.0324,0.0307,0.0279,0.0278,0.028,0.0264,0.0242,0.0274,0.0258,0.0258,0.0258,0.0226,0.0223,0.0258,0.0257,0.0257,0.0257,0,0.0294,0.0317,0.0328,0.0355,0.0366,0.0384,0.0386,0.0394,0.0394,0.0393,0.0393,0.0357,0.035,0.0333,0.0313,0.0304,0.0287,0.0265,0.0248,0.0263,0.0228,0.0224,0.0261,0.0261,0.026,0.0259,0,0,0.0305,0.0347,0.0351,0.0373,0.0396,0.0408,0.0433,0.0451,0.0472,0.0458,0.0476,0.0444,0.0427,0.0414,0.0381,0.0348,0.0318,0.0314,0.0311,0.0288,0.0246,0.0179,0.0167,0.0295,0.0294,0.0294,0.0222,0,0.0334,0.0384,0.04,0.0446,0.047,0.0477,0.0507,0.052,0.0522,0.0531,0.0494,0.0493,0.0457,0.0452,0.0417,0.0336,0.031,0.034,0.0231,0.0228,0.017,0.0161,0.0293,0.0218,0.0217,0.0216,0.0216,0,0.036,0.0393,0.0448,0.0499,0.0511,0.0543,0.0585,0.0605,0.0612,0.0619,0.0613,0.0579,0.0536,0.0499,0.0392,0.0415,0.0345,0.0282,0.0277,0.0195,0.0153,0.0198,0.0207,0.0208,0.0209,0.0209,0.021,0,0.0363,0.0422,0.047,0.0486,0.0543,0.0577,0.0606,0.0636,0.0652,0.0669,0.0671,0.0636,0.0593,0.0515,0.0379,0.0389,0.0246,0.024,0.0122,0.0117,0.0178,0.0177,0.0177,0.0177,0.0177,0.0177,0.0177,0,0.0379,0.0412,0.0479,0.0502,0.0564,0.0598,0.0658,0.0684,0.0714,0.072,0.0711,0.0682,0.0591,0.0491,0.0394,0.023,0.0256,0.0127,0.009,0.0201,0.0204,0.0174,0.0175,0.0174,0.0175,0.0175,0.0176,0,0.0361,0.0408,0.0459,0.0536,0.0566,0.0603,0.0681,0.0708,0.0748,0.0749,0.075,0.0699,0.0567,0.046,0.0306,0.0226,0.0093,0.0035,0.0158,0.013,-0.0007,-0.0002,-0.0088,-0.0091,-0.0093,-0.0095,-0.0097,0,0.0352,0.038,0.047,0.0502,0.0541,0.0609,0.0652,0.072,0.0741,0.0733,0.0715,0.0613,0.0556,0.0303,0.0195,0.0023,-0.0005,-0.0052,-0.0019,-0.0009,-0.0035,-0.0027,-0.0019,-0.0101,-0.0102,-0.0103,-0.0103,0,0.0324,0.0362,0.0405,0.0482,0.0537,0.0589,0.0652,0.0671,0.0717,0.075,0.0668,0.0557,0.0402,0.0252,0.0115,-0.0009,-0.0007,-0.0079,-0.0073,-0.0043,-0.0026,-0.0048,-0.0038,-0.0112,-0.0111,-0.011,-0.011,0,0.0296,0.0322,0.0389,0.0456,0.0511,0.0546,0.0591,0.0612,0.0641,0.0651,0.0604,0.0479,0.0426,0.0229,0.0093,-0.0028,-0.0049,-0.0065,-0.006,-0.0052,-0.0023,0.0004,-0.0108,0,0,0,0,0,0.0273,0.0315,0.036,0.0434,0.0477,0.0524,0.0576,0.0615,0.0662,0.0599,0.0614,0.0473,0.0271,0.0191,0.0054,0.0035,-0.0076,-0.0129,-0.0094,-0.0162,-0.0152,-0.0131,0,0,0,0,0,0,0.0264,0.031,0.0351,0.0394,0.0441,0.0492,0.0527,0.0555,0.0536,0.0562,0.0456,0.0444,0.0249,0.0351,0.0055,0.0019,0.0022,-0.0203,-0.0206,-0.0168,-0.0158,-0.015,-0.0126,0,0,0,0,0]}]]